Weather History for Curtin, WE

Change the Weather History Date:

Thursday, December 6, 2012

  Actual Average Record
Temperature  
Mean Temperature 94 °F -  
Max Temperature 109 °F - - ()
Min Temperature 75 °F - - ()
Cooling Degree Days 30    
Growing Degree Days 44 (Base 50)    
Moisture  
Dew Point 66 °F    
Average Humidity 45    
Maximum Humidity 89    
Minimum Humidity 14    
Precipitation  
Precipitation 0.20 in - - ()
Sea Level Pressure  
Sea Level Pressure 29.82 in    
Wind  
Wind Speed 6 mph ()    
Max Wind Speed 23 mph    
Max Gust Speed 38 mph    
T = Trace of Precipitation, MM = Missing Value Source: Averaged Metar Reports

Daily Weather History Graph

Daily Weather History Graph

Search for Another Location

Airport:

Trip Planner

Search our weather history database for the weather conditions in past years. The results will help you decide how hot, cold, wet, or windy it might be!

Date:

Astronomy

Dec. 06, 2012 Rise Set
Actual Time 5:01 AM WST 6:09 PM WST
Civil Twilight 4:37 AM WST 6:33 PM WST
Nautical Twilight 4:09 AM WST 7:02 PM WST
Astronomical Twilight 3:40 AM WST 7:31 PM WST
Moon 11:40 PM WST (12/6) 11:09 AM WST (12/6)
Length of Visible Light 13h 56m
Length of Day
13h 08m
Waning Gibbous, 55% of the Moon is Illuminated
Dec 6
Waning Gibbous
Dec 6
Last Quarter
Dec 13
New
Dec 20
First Quarter
Dec 28
Full

Hourly Weather History & Observations

Time (WST) Temp. Heat Index Dew Point Humidity Pressure Visibility Wind Dir Wind Speed Gust Speed Precip Events Conditions
12:00 AM 84 °F - 71 °F 56% 29.81 in - SSE 4.6 mph - -  
12:00 AM 84.2 °F 89.6 °F 71.6 °F 66% 29.80 in - SSE 4.6 mph - N/A   Unknown
1:00 AM 84.2 °F 88.4 °F 69.8 °F 62% 29.80 in - SSE 5.8 mph - N/A   Unknown
2:00 AM 82.4 °F 86.3 °F 69.8 °F 66% 29.80 in - South 5.8 mph - N/A   Unknown
3:00 AM 82 °F - 69 °F 55% 29.81 in - SSE 8.1 mph - -  
3:00 AM 82.4 °F 85.4 °F 68.0 °F 62% 29.83 in - SSE 8.1 mph - N/A   Unknown
4:00 AM 82.4 °F 86.3 °F 69.8 °F 66% 29.86 in - SE 6.9 mph - N/A   Unknown
5:00 AM 80.6 °F 83.9 °F 69.8 °F 70% 29.86 in - South 8.1 mph - N/A   Unknown
6:00 AM 81 °F - 70 °F 61% 29.90 in - SSE 8.1 mph - -  
6:00 AM 80.6 °F 83.9 °F 69.8 °F 70% 29.89 in - SSE 8.1 mph - N/A   Unknown
7:00 AM 84.2 °F 88.4 °F 69.8 °F 62% 29.92 in - SSE 9.2 mph - N/A   Unknown
8:00 AM 87.8 °F 91.4 °F 68.0 °F 52% 29.92 in - SE 11.5 mph - N/A   Unknown
9:00 AM 93 °F - 67 °F 33% 29.88 in - East 11.5 mph - -  
9:00 AM 93.2 °F 97.7 °F 68.0 °F 44% 29.89 in - East 11.5 mph - N/A   Unknown
10:00 AM 96.8 °F 100.7 °F 66.2 °F 37% 29.86 in - ESE 10.4 mph - N/A   Unknown
11:00 AM 100.4 °F 104.9 °F 66.2 °F 33% 29.83 in - ESE 9.2 mph - N/A   Unknown
12:00 PM 101 °F - 61 °F 18% 29.80 in - SE 8.1 mph - -  
12:00 PM 102.2 °F 103.6 °F 60.8 °F 26% 29.80 in - SE 8.1 mph - N/A   Unknown
1:00 PM 104.0 °F 106.6 °F 62.6 °F 26% 29.77 in - East 11.5 mph - N/A   Unknown
2:00 PM 107.6 °F 110.6 °F 62.6 °F 23% 29.77 in - East 8.1 mph - N/A   Unknown
3:00 PM 107 °F - 60 °F 14% 29.73 in - NE 3.5 mph - -  
3:00 PM 107.6 °F 109.7 °F 60.8 °F 22% 29.74 in - NE 3.5 mph - N/A   Unknown
4:00 PM 107.6 °F 109.7 °F 60.8 °F 22% 29.71 in - North 4.6 mph - N/A   Unknown
5:00 PM 105.8 °F 106.8 °F 59.0 °F 22% 29.74 in - NNE 2.3 mph - N/A   Unknown
6:00 PM 100 °F - 62 °F 19% 29.75 in - Calm Calm - -  
6:00 PM 100.4 °F 101.3 °F 60.8 °F 27% 29.74 in - Calm Calm - N/A   Unknown
7:00 PM 93.2 °F 94.1 °F 62.6 °F 36% 29.77 in - East 2.3 mph - N/A   Unknown
8:00 PM 89.6 °F 91.1 °F 64.4 °F 43% 29.80 in - ENE 3.5 mph - N/A   Unknown
9:00 PM 90 °F - 66 °F 35% 29.81 in - North 4.6 mph - -  
9:00 PM 89.6 °F 92.2 °F 66.2 °F 46% 29.80 in - North 4.6 mph - N/A   Unknown
10:05 PM 82.4 °F 87.2 °F 71.6 °F 70% 29.86 in - North 23.0 mph 38.0 mph N/A   Unknown
11:00 PM 75.2 °F - 71.6 °F 89% 29.89 in - North 16.1 mph 27.6 mph N/A   Unknown